Starlink 31999

operational
NORAD ID: 60101 Int'l Des: 2024-117 Owner: SPXS Country: US Constellation: starlink
LEOCIRCULAR

Über Starlink 31999

Beschreibung wird geladen...

Live-Position

3D-Globus wird geladen...

Nächste Überflüge

Höhenverlauf

Altitude vs Time

uPlot chart will show altitude changes over time

Zweizeiliger Elementsatz

1 60101U 24117L 25304.63340190 -.00000073 00000-0 96571-5 0 9997
2 60101 53.1613 276.8454 0001335 98.3247 261.7905 15.30188327 77125
Epoch: 31. Okt. 2025 • Age: 20 hours

Aktueller Status

Höhe 489.0 km
Geschwindigkeit 7.62 km/s
Subsatellitenpunkt -39.89°S, 74.86°W
Startdatum 23. Juni 2024
Alter 1.3 years
Typ internet

Technische Details

Klassifizierung Payload
Masse 730.00 kg
Trockenmasse 700.00 kg
Gesamtmasse 730.00 kg
Länge 0.30 m
Durchmesser 4.10 m
Spannweite 29.00 m
Form Box + pan
Hersteller SPXS
Bus-Typ Starlink V2M
Phasenstatus In Orbit
Besitzer/Staat SPXS/US

Große Konstellationen

Loading constellations...